Location: Borotín
(49.5055°N, 14.6142°E)
Time: 12:40:58
(UTC+00:00)

USA 267 - Pass Details

Date: 27 May 2022
Orbit: 1101 x 1106 km, 123.0° (Epoch: 25 June)

Event Time Altitude Azimuth Distance (km) Brightness Sun altitude
Exits shadow 00:16:54 26° 196° (SSW) 2,030 4.0 -17.1°
Maximum altitude 00:19:10 32° 230° (SW) 1,803 3.9 -17.0°
Drops below altitude 10° 00:24:54 10° 292° (WNW) 2,965 5.5 -16.7°
Sets 00:27:43 0° 302° (WNW) 3,926 6.3 -16.5°
